Date String (YYYY-MM-DD hh:mm:ss) UTC,Instrument flags,Ambient pressure (hPa),Sample flow (lpm),Bypass flow (lpm),Sample temperature (°C),Ambient temperature (°C),ASC tube jacket temperature (°C),LED temperature (°C),Box temperature (°C),Sample RH (%),Span deviation,Mass concentration (μg/m³),Mass concentration (μg/m³),Mass concentration (μg/m³)
DateTimeUTC,F1_M11,P_M11,Q1_M11,Q2_M11,T1_M11,T2_M11,T3_M11,T4_M11,T5_M11,U1_M11,ZSPAN_M11,X2_M11,X0_M11,X1_M11
2022-03-03 19:00:00,,0826.5,5.00,0.00,28.6,28.0,00.0,37.5,30.4,10.5,0000.0,0005.94,0016.07,0004.78
2022-03-03 19:01:00,,0826.5,5.00,0.00,28.6,28.0,00.0,37.5,30.4,10.6,0000.0,0005.96,0015.88,0004.84
2022-03-03 19:02:00,,0826.5,5.00,0.00,28.7,28.0,00.0,37.6,30.5,10.8,0000.0,0005.98,0015.03,0004.88
2022-03-03 19:03:00,,0826.4,4.99,0.00,28.7,28.0,00.0,37.6,30.5,10.9,0000.0,0006.02,0015.12,0004.93
2022-03-03 19:04:00,,0826.4,4.99,0.00,28.7,28.0,00.0,37.6,30.5,10.4,0000.0,0006.08,0015.17,0005.02
2022-03-03 19:05:00,,0826.3,5.00,0.00,28.7,28.1,00.0,37.6,30.5,10.5,-000.3,0006.15,0015.46,0005.12
2022-03-03 19:06:00,,0826.3,5.00,0.00,28.7,28.1,00.0,37.6,30.5,10.9,-000.0,0006.18,0014.78,0005.21
2022-03-03 19:07:00,,0826.3,5.01,0.00,28.7,28.1,00.0,37.6,30.5,10.6,0000.0,0006.22,0014.31,0005.26
2022-03-03 19:08:00,,0826.2,5.00,0.00,28.8,28.1,00.0,37.6,30.6,10.5,0000.0,0006.28,0014.58,0005.35
2022-03-03 19:09:00,,0826.3,4.99,0.00,28.8,28.1,00.0,37.6,30.6,10.7,0000.0,0006.35,0014.34,0005.46
2022-03-03 19:10:00,,0826.2,4.99,0.00,28.8,28.1,00.0,37.7,30.6,10.7,0001.4,0006.45,0014.84,0005.61
2022-03-03 19:11:00,,0826.2,5.00,0.00,28.8,28.2,00.0,37.7,30.6,10.6,0002.9,0006.59,0014.67,0005.75
2022-03-03 19:12:00,,0826.2,5.01,0.00,28.8,28.2,00.0,37.7,30.6,10.5,0000.2,0006.71,0015.00,0005.86
2022-03-03 19:13:00,,0826.1,5.00,0.00,28.8,28.2,00.0,37.7,30.6,10.5,-000.8,0006.84,0015.27,0006.02
2022-03-03 19:14:00,,0826.1,5.00,0.00,28.9,28.2,00.0,37.7,30.7,10.6,0000.5,0006.98,0015.82,0006.19
2022-03-03 19:15:00,,0826.1,5.01,0.00,28.9,28.3,00.0,37.7,30.7,10.9,0001.2,0007.06,0016.32,0006.31
2022-03-03 19:16:00,,0826.1,4.98,0.00,28.9,28.3,00.0,37.7,30.7,10.9,0000.4,0007.16,0015.88,0006.43
2022-03-03 19:17:00,,0826.1,5.00,0.00,28.9,28.3,00.0,37.8,30.7,10.8,0000.4,0007.30,0015.96,0006.58
2022-03-03 19:18:00,,0826.1,5.00,0.00,28.9,28.3,00.0,37.8,30.7,11.0,0000.5,0007.48,0016.82,0006.76
2022-03-03 19:19:00,,0826.0,5.00,0.00,28.9,28.3,00.0,37.8,30.8,10.8,-000.5,0007.68,0016.82,0006.95
2022-03-03 19:20:00,,0826.1,5.00,0.00,29.0,28.3,00.0,37.8,30.8,11.0,0001.0,0007.85,0017.22,0007.13
2022-03-03 19:21:00,,0826.0,5.00,0.00,29.0,28.4,00.0,37.8,30.8,11.0,0002.8,0008.04,0016.43,0007.32
2022-03-03 19:22:00,,0826.0,4.99,0.00,29.0,28.4,00.0,37.8,30.8,11.1,0002.3,0008.21,0016.36,0007.55
2022-03-03 19:23:00,,0826.0,4.99,0.00,29.0,28.4,00.0,37.9,30.8,11.0,0002.0,0008.39,0017.32,0007.75
2022-03-03 19:24:00,,0826.0,5.01,0.00,29.1,28.4,00.0,37.9,30.9,11.1,0002.3,0008.57,0017.41,0007.92
2022-03-03 19:25:00,,0826.0,5.01,0.00,29.1,28.5,00.0,37.9,30.9,11.2,0001.0,0008.76,0016.90,0008.10
2022-03-03 19:26:00,,0826.0,4.99,0.00,29.1,28.5,00.0,37.9,30.9,11.2,0000.6,0008.98,0016.91,0008.29
2022-03-03 19:27:00,,0826.0,5.00,0.00,29.1,28.5,00.0,37.9,31.0,11.4,-000.6,0009.17,0017.24,0008.45
2022-03-03 19:28:00,,0825.9,5.01,0.00,29.1,28.5,00.0,38.0,30.9,11.3,-001.5,0009.29,0017.09,0008.58
2022-03-03 19:29:00,,0826.0,4.99,0.00,29.1,28.5,00.0,38.0,31.0,11.3,-001.8,0009.40,0016.79,0008.68
2022-03-03 19:30:00,,0825.9,4.98,0.00,29.2,28.5,00.0,38.0,31.0,10.9,-001.9,0009.48,0016.67,0008.75
2022-03-03 19:31:00,,0825.9,5.02,0.00,29.2,28.5,00.0,38.0,31.0,10.7,-002.4,0009.51,0016.51,0008.80
2022-03-03 19:32:00,,0825.9,4.99,0.00,29.2,28.5,00.0,38.0,31.0,10.6,-002.6,0009.50,0016.80,0008.81
2022-03-03 19:33:00,,0825.9,5.00,0.00,29.2,28.5,00.0,38.0,31.0,10.7,-003.0,0009.48,0016.61,0008.77
2022-03-03 19:34:00,,0825.9,5.02,0.00,29.2,28.5,00.0,38.1,31.0,10.4,-003.2,0009.40,0015.22,0008.70
2022-03-03 19:35:00,,0825.9,5.00,0.00,29.2,28.6,00.0,38.1,31.0,10.3,-003.5,0009.31,0014.92,0008.62
2022-03-03 19:36:00,,0825.9,5.00,0.00,29.2,28.6,00.0,38.1,31.0,10.0,-003.7,0009.13,0015.41,0008.46
2022-03-03 19:37:00,,0825.8,4.99,0.00,29.2,28.6,00.0,38.1,31.1,10.2,-003.6,0008.94,0014.78,0008.30
2022-03-03 19:38:00,,0825.8,5.02,0.00,29.2,28.6,00.0,38.1,31.1,10.6,-003.6,0008.81,0014.41,0008.19
2022-03-03 19:39:00,,0825.7,5.00,0.00,29.3,28.6,00.0,38.1,31.1,11.0,-003.8,0008.77,0014.30,0008.13
2022-03-03 19:40:00,,0825.7,4.99,0.00,29.3,28.6,00.0,38.1,31.1,10.9,-003.7,0008.71,0013.97,0008.08
2022-03-03 19:41:00,,0825.7,4.99,0.00,29.3,28.7,00.0,38.2,31.1,11.1,-003.5,0008.64,0014.14,0008.04
2022-03-03 19:42:00,,0825.7,5.01,0.00,29.3,28.7,00.0,38.2,31.1,10.2,-003.2,0008.61,0014.08,0007.99
2022-03-03 19:43:00,,0825.8,5.00,0.00,29.3,28.7,00.0,38.2,31.1,10.3,-003.2,0008.56,0013.80,0007.92
2022-03-03 19:44:00,,0825.6,4.99,0.00,29.3,28.7,00.0,38.2,31.1,10.2,-003.1,0008.47,0013.83,0007.84
2022-03-03 19:45:00,,0825.6,4.99,0.00,29.3,28.7,00.0,38.2,31.2,10.4,-002.8,0008.38,0013.97,0007.78
2022-03-03 19:46:00,,0825.6,5.01,0.00,29.4,28.7,00.0,38.2,31.2,10.2,-002.4,0008.27,0013.89,0007.69
2022-03-03 19:47:00,,0825.5,5.00,0.00,29.4,28.8,00.0,38.2,31.2,09.7,-002.4,0008.24,0013.58,0007.65
2022-03-03 19:48:00,,0825.5,4.99,0.00,29.4,28.8,00.0,38.3,31.2,09.6,-002.4,0008.19,0013.64,0007.60
2022-03-03 19:49:00,,0825.5,5.01,0.00,29.4,28.8,00.0,38.3,31.3,09.4,-002.1,0008.09,0013.75,0007.50
2022-03-03 19:50:00,,0825.5,4.99,0.00,29.4,28.8,00.0,38.3,31.3,09.4,-001.5,0007.91,0014.15,0007.34
2022-03-03 19:51:00,,0825.5,5.01,0.00,29.4,28.8,00.0,38.3,31.3,09.1,-001.6,0007.67,0014.19,0007.12
2022-03-03 19:52:00,,0825.5,4.99,0.00,29.5,28.8,00.0,38.3,31.3,09.2,-001.9,0007.45,0013.77,0006.92
2022-03-03 19:53:00,,0825.5,5.01,0.00,29.5,28.8,00.0,38.3,31.3,09.3,-001.8,0007.24,0013.42,0006.73
2022-03-03 19:54:00,,0825.5,5.01,0.00,29.5,28.9,00.0,38.3,31.3,09.6,-001.6,0007.07,0013.12,0006.56
2022-03-03 19:55:00,,0825.4,4.98,0.00,29.5,28.9,00.0,38.4,31.3,09.7,-001.7,0006.91,0012.88,0006.41
2022-03-03 19:56:00,,0825.5,5.00,0.00,29.5,28.9,00.0,38.4,31.3,09.2,-001.2,0006.78,0012.41,0006.29
2022-03-03 19:57:00,,0825.5,5.00,0.00,29.5,28.9,00.0,38.4,31.3,09.0,-001.5,0006.67,0012.13,0006.19
2022-03-03 19:58:00,,0825.5,4.99,0.00,29.6,28.9,00.0,38.4,31.4,09.2,-001.5,0006.58,0011.56,0006.10
2022-03-03 19:59:00,,0825.4,5.00,0.00,29.6,29.0,00.0,38.4,31.4,09.3,-001.5,0006.52,0011.55,0006.02
